Location: Kampong Paya Jaras Dalam
(3.1833°N, 101.5500°E)
Time: 05:38:19
(UTC+00:00)

Cosmos 44 Rocket - Pass Details

Date: 15 May 2026
Orbit: 631 x 746 km, 65.1° (Epoch: 7 June)

Event Time Altitude Azimuth Distance (km) Brightness Sun altitude
Rises 22:07:17 0° 345° (NNW) 3,114 6.7 -13.8°
Reaches altitude 10° 22:09:42 10° 349° (N) 2,180 6.0 -13.2°
Maximum altitude 22:14:35 59° 68° (ENE) 803 4.0 -12.0°
Drops below altitude 10° 22:19:19 10° 147° (SSE) 2,112 6.0 -10.9°
Sets 22:21:38 0° 151° (SSE) 3,009 6.7 -10.4°
